Wind_Speed
40 41 39 35 32 31 30 29 29 30 30 31 32 33 34 35 38 43 47 49 48 44 42 40 35 32 32 32 33 33 35 38 42 42 41 43 43 43 43 43 46 50 52 56 60 62 64 64 62 69 75 65 54 54 54 56 55 48 46 46 44 45 47 49 53 57 59 60 57 54 53 52 51 49
36 36 36 33 28 27 27 26 26 27 27 28 29 31 32 32 33 37 42 48 48 43 41 41 39 33 31 32 32 33 33 36 41 43 42 42 42 42 42 42 43 46 50 53 58 61 63 65 62 66 77 72 56 51 53 54 53 48 46 47 46 46 49 51 54 57 57 58 56 54 53 51 51 51
35 33 31 26 23 23 24 25 26 26 26 28 29 29 29 30 31 33 38 43 44 41 39 39 39 35 32 31 31 32 32 34 39 43 43 41 41 41 41 41 41 44 47 50 55 60 63 65 64 64 74 77 63 53 54 55 53 50 48 47 47 48 48 50 53 55 55 56 55 54 52 51 51 52
33 29 23 19 19 22 25 27 27 25 25 26 28 29 29 30 32 32 37 40 38 36 36 36 37 36 34 32 31 31 31 33 37 42 42 41 40 41 41 41 41 42 45 48 51 56 61 65 66 64 69 76 68 54 53 57 54 51 51 48 47 47 46 47 51 53 55 56 55 54 53 53 54 54
32 24 17 17 20 23 24 24 24 23 23 24 26 27 28 32 35 34 37 40 35 31 31 33 35 34 33 32 30 30 30 32 36 40 41 41 40 40 40 40 40 40 43 46 49 53 58 63 66 66 67 73 72 59 52 56 55 54 54 50 48 49 50 52 53 53 55 56 55 54 53 54 55 55
32 21 16 18 21 22 20 19 20 20 21 22 23 25 26 29 35 36 37 39 36 31 28 28 31 31 30 30 28 28 29 31 35 39 40 40 40 40 39 39 38 39 40 42 46 49 54 60 65 68 68 70 75 71 60 54 55 58 58 53 51 53 55 57 56 54 54 55 54 53 53 55 55 54
33 20 16 18 21 21 18 16 17 18 20 21 21 22 24 26 31 35 35 37 36 32 29 28 29 27 26 27 26 26 28 30 34 38 39 39 39 39 38 37 36 37 38 39 42 46 51 56 61 66 68 68 70 74 70 60 56 60 62 57 54 56 59 59 56 53 52 53 52 52 54 56 55 54
32 21 16 17 19 20 18 14 15 16 18 20 18 19 22 25 28 33 34 36 37 33 29 30 30 26 24 24 24 25 27 29 33 36 38 39 39 38 38 37 35 35 36 37 39 42 47 53 58 63 67 68 67 68 71 67 59 59 64 62 57 58 61 59 56 54 52 50 50 51 53 54 54 54
30 22 16 16 18 19 19 14 12 14 16 18 17 16 21 24 27 32 34 35 38 35 27 29 33 29 25 23 22 24 26 28 32 35 37 37 38 38 37 36 35 35 36 37 38 40 43 48 54 59 63 66 66 66 70 71 62 58 65 67 60 58 62 61 55 53 52 49 48 50 51 51 52 53
28 21 16 15 16 18 19 17 12 12 14 15 15 13 18 24 25 30 35 35 39 38 27 27 35 36 31 25 22 23 25 27 31 33 35 36 37 37 36 36 36 35 35 36 36 37 40 43 48 55 59 62 64 65 71 75 67 60 65 68 63 58 62 63 56 51 52 51 47 48 49 49 50 51
27 20 16 14 15 16 18 18 15 11 9 11 13 11 15 22 24 28 35 38 40 36 27 26 35 41 38 30 23 23 25 27 30 31 33 35 35 36 36 35 35 35 34 34 34 35 35 37 41 47 52 57 61 63 70 78 75 65 62 66 65 59 59 62 59 54 53 54 50 48 47 47 47 49
28 21 15 13 13 14 16 17 16 13 9 5 6 9 14 21 25 26 30 38 42 37 28 27 32 37 39 33 26 24 25 28 30 29 29 33 34 35 35 34 34 34 33 33 33 33 33 33 37 42 46 51 57 61 67 77 82 75 65 64 66 62 58 61 61 57 56 53 50 49 47 46 46 46
29 22 15 12 12 12 15 16 16 16 14 10 6 6 12 17 24 28 28 33 40 40 35 33 31 32 34 32 28 25 25 28 29 28 26 29 33 34 34 33 32 32 33 33 33 32 32 32 33 37 42 46 52 58 62 71 82 81 69 64 66 66 63 61 58 58 60 56 49 46 46 46 44 43
30 24 17 12 10 11 13 14 15 15 14 12 10 5 11 14 18 25 27 28 31 35 37 37 32 28 29 30 29 26 25 27 29 29 27 27 30 33 34 33 32 32 32 33 34 33 31 32 32 33 37 41 46 53 57 64 75 80 73 66 66 69 68 64 58 57 60 60 52 47 46 46 44 42
33 27 20 14 10 10 11 12 13 13 12 10 8 4 7 9 12 16 21 25 26 29 33 34 30 25 23 26 29 27 26 27 29 30 29 27 29 31 32 33 32 31 32 32 34 34 32 31 31 32 33 36 40 46 51 57 66 76 79 75 72 72 71 67 62 57 56 57 55 51 49 48 45 43
35 30 24 18 12 11 11 10 11 11 11 9 5 3 3 7 10 11 14 19 24 27 30 32 29 23 20 23 27 27 26 25 27 30 30 28 28 29 30 31 30 30 30 30 32 34 33 31 31 31 32 33 36 40 44 49 56 65 74 77 75 75 73 68 65 60 54 54 55 54 53 52 49 46
38 34 29 22 15 11 10 10 10 10 10 8 2 3 3 9 13 15 15 17 20 22 25 28 28 23 18 20 23 24 24 23 24 29 31 28 27 28 29 29 29 28 28 28 30 32 33 33 31 31 32 33 34 36 39 44 47 52 63 72 75 74 71 67 64 59 53 53 56 56 56 55 54 52
40 37 32 27 19 12 10 9 9 9 9 7 2 4 6 8 12 15 18 19 20 21 22 24 26 23 19 18 19 20 21 22 22 24 29 29 28 28 28 28 28 28 28 27 28 29 31 33 33 32 32 33 34 35 36 38 41 45 53 64 70 72 71 68 65 60 55 54 56 58 58 55 55 56
41 40 36 30 22 14 10 8 8 8 8 7 4 3 6 6 8 13 18 21 22 22 22 22 24 23 20 18 18 18 20 23 21 21 24 27 27 27 28 29 28 27 26 26 27 27 28 30 32 34 35 34 34 35 36 36 36 38 44 52 61 66 70 71 68 65 61 58 56 59 60 57 55 56
41 42 39 32 23 17 12 7 6 7 8 7 5 4 4 6 7 10 15 19 21 20 20 20 21 22 21 19 18 18 20 22 21 19 20 23 26 25 26 29 30 28 26 25 25 25 26 27 28 31 34 36 36 35 36 37 36 35 37 42 48 55 61 65 65 63 64 63 61 60 60 59 57 57
40 42 41 35 27 22 17 8 4 6 9 9 7 6 5 3 5 8 12 17 19 18 17 18 19 20 20 19 18 18 19 19 19 19 19 20 23 24 25 27 29 29 27 26 24 23 24 25 26 27 30 34 37 37 37 37 38 37 35 36 40 44 49 55 57 58 59 62 63 63 61 60 58 56
39 40 41 38 32 29 24 13 5 4 7 9 9 8 7 5 3 6 9 13 16 15 15 15 16 18 19 19 18 18 17 17 16 17 19 20 21 23 24 25 27 28 28 27 25 24 23 24 25 26 27 29 33 36 38 38 39 39 38 37 37 38 41 45 49 51 52 55 59 61 62 62 59 54
38 39 40 39 36 34 30 20 10 4 5 8 10 10 9 7 3 4 7 9 11 12 12 12 13 15 17 17 17 17 16 16 15 15 16 18 20 21 22 23 25 27 28 28 28 26 24 24 24 24 25 27 29 32 36 38 40 41 41 41 39 38 38 39 42 45 46 48 52 55 57 60 60 56
36 39 40 40 39 37 33 26 17 8 4 5 8 10 10 8 4 4 7 8 9 10 11 11 11 13 14 15 16 16 17 17 17 16 16 17 18 19 19 21 23 25 27 29 31 30 28 26 24 24 23 24 25 27 31 34 38 41 42 43 43 41 40 39 39 41 42 43 44 47 50 54 58 59
36 39 40 41 41 39 35 31 23 14 7 4 6 9 10 8 6 5 7 9 11 13 14 15 15 14 14 14 16 17 17 18 19 19 18 17 18 17 17 18 20 22 25 28 30 32 31 30 29 27 25 24 24 24 26 29 33 37 40 42 45 45 44 43 41 41 41 41 41 43 45 47 51 55
36 38 39 41 42 40 37 33 28 20 12 6 5 7 8 8 8 8 8 11 13 16 17 18 17 15 15 15 17 18 19 19 20 21 20 19 18 18 17 17 17 19 22 24 27 29 30 30 30 31 30 28 27 26 25 27 29 32 35 38 41 44 46 46 46 45 44 43 42 42 42 43 44 47
35 36 38 39 40 39 37 34 30 25 17 9 5 4 6 8 9 9 10 13 16 18 20 21 21 20 17 16 18 20 21 21 21 21 21 21 20 20 19 18 18 18 19 21 23 26 28 29 30 31 32 32 31 30 29 28 28 29 32 35 38 41 44 46 47 48 47 46 45 44 42 42 42 42
33 35 36 36 36 36 35 34 31 27 21 15 9 5 3 5 8 9 11 13 15 16 18 19 22 22 20 17 19 23 24 23 22 21 21 21 21 21 20 20 20 19 19 19 21 23 26 28 29 30 32 33 33 33 32 31 30 29 30 32 35 38 41 43 45 47 49 49 49 47 46 44 43 43
31 32 32 32 31 32 31 31 29 27 23 20 15 9 4 2 6 8 10 11 12 13 13 15 17 19 19 18 19 22 24 24 24 23 22 21 20 20 20 20 20 21 20 20 20 21 22 25 27 28 30 31 32 33 33 33 32 31 31 32 33 34 37 40 43 45 47 48 49 50 49 48 46 45
27 27 27 27 27 29 30 30 29 28 25 21 16 11 6 2 3 6 8 9 10 11 11 13 14 15 16 17 19 21 22 23 23 23 22 21 20 19 19 19 20 21 21 21 22 22 21 22 24 26 27 29 30 31 33 34 34 34 33 33 34 34 35 37 40 42 45 47 48 49 50 49 49 47
24 25 24 25 25 26 28 29 28 26 24 20 16 13 9 6 2 3 5 7 8 9 10 11 13 14 15 16 18 19 21 21 22 22 22 22 21 19 18 18 19 19 19 20 21 23 23 23 23 24 26 27 28 29 31 33 35 35 35 35 35 36 36 36 37 39 41 43 46 48 50 50 50 50
23 23 22 21 21 21 22 23 24 24 23 21 19 17 14 12 8 4 0 3 5 7 8 9 11 13 15 16 17 18 19 20 21 22 22 22 21 20 19 19 19 19 19 19 19 21 23 25 25 25 25 25 26 27 29 31 32 34 36 36 37 37 38 37 37 38 38 40 42 44 47 49 51 51
22 21 19 17 17 17 18 20 22 23 23 23 21 19 17 16 13 9 6 2 1 4 6 8 10 12 15 16 18 19 20 21 21 22 22 22 22 21 21 20 20 20 20 20 20 20 21 24 26 26 26 25 25 26 28 30 31 32 34 36 37 37 38 39 39 39 40 40 40 41 42 45 47 49
21 19 17 17 17 17 18 19 20 22 23 23 22 20 18 17 14 12 8 6 3 2 2 5 8 11 14 16 18 19 20 21 22 23 24 24 24 24 24 23 23 23 23 23 23 22 22 23 25 26 27 27 27 27 28 29 29 30 32 34 35 36 38 38 39 39 40 41 41 41 42 42 43 45
21 18 16 16 17 17 18 19 20 21 22 22 22 21 20 18 16 14 10 8 7 5 2 0 3 7 11 14 17 19 20 22 23 24 25 26 27 27 27 27 27 27 26 26 26 26 25 24 25 26 28 29 29 29 28 29 29 30 31 33 34 35 36 37 38 39 39 40 41 42 42 43 43 44
22 20 17 16 16 16 17 18 18 19 20 21 21 21 20 19 17 15 14 12 11 8 5 3 1 2 6 9 13 17 19 21 23 24 25 26 27 28 29 29 30 30 30 29 28 29 29 28 27 27 28 30 30 30 29 28 29 29 30 31 32 33 34 35 36 38 38 39 40 41 41 42 43 44
22 21 19 18 16 15 15 16 17 18 18 19 20 20 20 20 19 17 17 16 14 11 8 5 3 2 2 4 7 11 15 18 20 22 23 24 25 26 28 29 29 31 31 30 29 29 28 28 29 29 30 30 31 31 30 29 29 29 29 29 30 30 31 32 34 36 37 37 38 38 39 39 40 41
22 21 20 19 18 16 15 15 15 16 16 17 17 18 18 19 19 18 17 16 14 13 11 9 5 3 2 3 3 5 8 12 15 17 19 20 21 23 24 25 26 28 29 29 29 26 24 24 27 31 33 33 32 31 31 31 30 29 29 30 30 30 30 31 32 33 34 35 36 36 36 36 36 37
23 22 21 20 19 18 16 15 14 14 14 14 15 15 16 16 16 16 16 15 14 13 12 11 9 5 3 2 3 4 5 6 9 12 14 15 16 18 20 22 24 25 27 28 28 27 24 23 26 29 32 35 34 32 32 32 31 30 30 30 31 31 32 32 31 31 32 32 33 34 35 36 35 35
24 23 22 21 20 19 18 16 15 14 14 14 14 14 14 14 14 14 14 14 14 14 13 12 11 9 7 4 3 4 5 5 6 7 9 11 11 12 15 18 21 23 24 25 28 29 27 26 26 25 27 32 35 34 33 33 35 35 34 33 33 33 33 33 32 32 32 32 32 33 34 35 36 36
24 23 22 21 20 19 18 17 16 15 14 14 14 14 13 13 13 13 13 14 14 14 13 12 11 10 9 7 5 3 4 5 5 6 7 8 8 8 10 12 16 20 21 23 28 31 29 28 27 27 27 29 32 34 35 34 35 36 36 35 34 33 34 34 34 34 33 33 33 34 35 35 35 36
24 23 22 21 21 20 19 18 17 16 15 14 14 13 13 13 13 13 13 13 13 13 13 12 12 11 10 8 7 5 3 3 5 6 7 8 9 9 9 9 11 16 19 23 28 31 30 28 27 28 29 30 31 33 34 34 34 35 36 36 35 34 34 34 34 35 35 35 36 36 37 37 38 38
23 22 22 21 21 20 19 19 18 17 16 15 14 14 13 13 13 13 13 12 12 11 11 11 11 11 11 10 9 7 5 4 4 5 7 9 10 13 14 12 11 12 16 22 27 30 30 29 28 27 28 30 32 34 34 34 33 34 35 37 37 37 36 35 35 35 36 36 37 38 38 38 38 39
24 22 22 21 20 19 19 19 18 18 17 16 15 15 14 13 13 13 13 12 12 12 11 11 11 11 11 11 11 10 9 7 6 5 5 7 10 12 15 17 17 16 16 19 24 28 28 28 28 27 27 28 31 34 37 37 37 35 35 35 36 37 36 36 36 36 36 37 37 38 38 37 37 37
24 24 23 22 21 20 19 19 18 18 17 17 16 15 15 14 14 13 13 13 13 13 12 12 11 11 11 11 11 10 10 10 9 7 6 6 7 9 12 15 19 20 21 21 23 26 28 28 27 27 28 28 29 30 33 35 36 36 35 34 35 35 36 37 37 37 37 37 36 36 36 37 37 37
Wind_Direction
308 304 303 297 287 284 283 280 279 277 273 271 270 265 260 259 252 241 236 234 230 228 229 228 229 233 234 234 231 229 228 222 218 217 217 216 217 219 220 220 222 222 221 220 220 221 223 223 220 217 216 213 204 201 208 214 214 212 213 212 205 204 208 211 212 212 213 214 214 216 219 220 220 220
311 305 301 296 286 282 282 279 278 277 274 272 271 266 256 249 248 245 240 235 229 227 230 229 230 232 232 233 231 227 227 223 218 217 217 216 216 217 219 219 221 222 221 221 221 221 222 223 221 218 217 215 207 202 204 209 212 209 207 206 203 204 208 210 210 210 211 211 213 217 219 218 219 219
317 310 302 294 285 280 279 276 274 273 272 273 270 265 253 241 239 242 243 238 229 224 229 230 229 232 232 232 231 226 224 222 218 216 216 216 215 216 217 218 219 220 221 222 221 220 221 223 222 220 219 217 212 207 203 205 208 207 204 204 202 201 204 206 205 207 209 210 213 216 217 216 217 218
322 313 302 290 282 279 278 276 272 268 268 271 270 265 250 234 231 236 240 239 229 221 225 227 225 229 231 229 229 226 223 221 218 215 215 215 215 215 216 217 218 219 220 221 221 220 220 222 221 221 221 217 213 208 202 199 204 207 203 201 201 200 201 203 203 206 211 214 216 216 214 214 216 218
328 313 293 282 285 288 284 276 269 264 264 266 267 268 258 235 225 228 233 234 227 215 217 221 219 223 227 227 227 226 223 221 217 215 214 214 215 215 215 216 217 218 220 221 221 220 220 221 220 220 221 218 213 208 201 196 200 204 201 199 203 202 201 204 206 209 213 215 215 215 213 214 216 217
331 313 286 282 294 302 293 273 267 263 260 261 260 261 263 244 225 223 229 232 225 212 210 215 214 217 223 225 225 226 223 220 217 215 214 213 214 215 215 215 216 217 219 220 221 220 220 220 220 219 220 220 216 213 210 203 199 200 200 199 203 203 202 207 208 210 213 213 212 213 213 213 215 215
332 315 287 283 296 309 302 274 266 264 256 259 255 242 245 246 229 221 227 231 224 214 210 215 214 214 220 223 224 225 223 220 217 215 213 213 213 214 214 214 214 216 217 219 220 219 219 220 221 220 220 220 220 217 216 212 203 199 200 199 200 202 204 207 210 210 212 213 211 211 213 213 214 214
332 319 295 288 296 310 312 287 266 266 260 259 252 227 226 238 230 220 224 228 224 216 210 211 213 215 220 223 223 224 222 220 218 215 212 212 212 213 214 213 213 215 216 217 219 218 219 220 220 221 220 220 222 218 214 213 208 203 202 200 199 202 203 206 208 209 211 211 210 210 212 213 213 214
333 323 304 296 299 309 319 311 280 268 267 260 247 221 216 228 229 221 221 225 224 221 215 209 212 217 222 224 224 223 222 220 218 215 212 211 212 212 213 212 211 213 214 215 217 217 218 219 220 221 221 220 221 219 212 211 211 207 202 201 201 202 203 205 205 206 210 209 207 209 211 211 212 213
337 326 310 301 301 307 316 321 306 278 269 258 243 219 210 218 222 220 220 222 223 223 222 218 217 220 223 226 227 224 221 219 217 214 211 210 211 211 213 214 212 211 213 214 217 218 218 219 219 220 220 219 220 219 212 210 213 210 202 203 206 202 202 205 203 201 208 209 206 207 209 209 210 211
343 332 317 305 301 305 311 319 319 299 274 251 237 221 206 209 216 218 217 219 223 221 219 221 222 224 226 228 230 228 222 218 215 212 209 209 210 210 211 214 213 211 212 214 216 219 219 219 219 218 219 218 218 218 214 212 214 213 206 205 207 204 200 204 202 195 200 207 207 207 208 207 208 209
348 340 326 310 303 303 308 315 320 320 318 296 245 223 208 206 213 218 215 215 221 222 218 221 226 228 229 230 233 231 223 217 212 209 209 209 209 210 210 212 213 211 211 213 216 219 220 220 219 218 217 217 216 217 216 214 214 215 212 208 208 208 203 200 198 192 193 201 205 206 206 205 206 207
354 347 337 319 307 303 305 311 320 328 331 331 313 230 201 196 206 216 217 216 221 226 226 227 232 235 235 235 235 231 223 217 211 208 210 210 209 209 209 210 211 210 209 211 215 219 221 221 221 220 218 216 216 216 216 216 216 215 213 210 211 212 206 199 194 190 191 195 197 201 205 204 204 206
360 355 348 333 312 301 303 308 318 329 329 318 309 247 188 172 178 198 211 215 217 222 225 227 231 234 236 236 233 228 225 221 214 209 210 210 209 209 209 208 208 208 207 209 212 216 220 222 223 222 220 217 217 216 216 217 217 214 211 211 214 213 209 204 199 192 192 196 195 196 201 202 202 204
5 360 356 348 326 300 297 304 310 321 324 308 293 250 182 154 148 176 200 206 206 209 215 219 222 223 228 231 227 224 227 226 218 211 210 210 210 209 208 207 206 205 205 205 208 212 216 219 222 223 223 220 218 217 216 215 215 213 212 215 218 215 210 207 204 197 195 199 199 195 196 198 201 205
9 6 2 358 342 309 297 302 304 308 317 313 284 242 155 145 165 192 205 202 201 204 209 214 217 217 219 223 223 224 227 227 220 214 211 210 209 208 207 207 207 205 204 203 204 207 211 215 219 221 223 224 221 218 216 214 213 212 212 215 216 213 210 208 205 202 201 201 199 196 194 195 198 202
11 11 6 2 352 325 303 302 303 301 312 329 310 223 168 139 163 192 202 197 196 200 207 213 214 213 212 216 220 222 224 224 220 216 213 211 208 206 205 206 207 205 204 203 202 204 207 211 215 218 220 223 223 219 217 215 213 211 210 211 212 212 213 211 206 204 206 206 202 197 196 197 197 196
13 14 10 5 357 338 314 305 302 300 309 331 335 223 200 147 147 164 172 176 179 185 196 205 208 207 205 206 212 215 215 214 212 211 212 211 209 207 204 205 206 205 203 203 201 201 204 207 211 214 216 220 221 220 218 216 214 212 210 210 212 214 216 215 213 211 211 211 207 201 199 200 198 196
15 16 14 9 0 349 340 320 299 297 303 316 323 254 217 188 157 147 152 159 165 170 178 189 200 205 204 199 198 200 203 204 204 205 208 209 209 208 207 207 207 204 203 203 202 200 201 204 208 211 213 216 218 218 217 216 214 211 209 210 212 215 216 218 220 220 218 217 213 206 202 201 201 200
16 17 16 14 9 6 6 346 303 295 296 300 310 295 247 214 184 156 149 153 158 162 166 175 188 198 202 198 193 192 193 195 199 203 205 207 209 208 208 209 208 206 204 203 201 199 198 200 203 207 210 212 215 215 215 215 214 212 210 208 209 213 216 219 222 223 222 221 218 212 207 205 204 203
18 17 16 17 20 20 19 10 329 300 292 293 300 303 297 258 196 165 150 147 152 160 165 169 177 185 192 195 190 188 188 186 186 189 193 201 207 210 211 210 209 210 209 207 202 198 197 198 199 202 206 210 212 213 213 212 212 211 210 209 207 209 212 216 218 219 219 218 216 215 212 208 205 205
19 17 16 19 25 26 24 21 8 310 288 290 293 298 307 301 226 178 156 148 152 163 167 167 171 175 181 187 187 186 185 183 183 182 180 183 191 200 207 210 211 212 212 211 208 204 201 200 198 199 202 206 209 211 212 211 210 209 209 208 207 207 208 210 212 214 215 214 212 213 213 210 206 208
19 18 18 22 26 27 25 24 21 348 291 288 289 293 300 303 272 202 184 174 174 181 182 181 180 176 176 179 181 184 184 187 194 196 188 180 177 180 188 197 204 210 212 212 211 209 207 205 202 200 200 202 206 209 211 211 210 209 209 208 207 206 205 206 208 209 211 211 210 210 212 211 208 207
20 20 20 23 26 26 25 26 26 16 329 291 287 288 294 299 293 237 209 205 213 218 219 220 213 198 188 182 180 183 186 189 197 204 204 198 190 184 182 185 190 198 205 208 209 210 209 207 207 206 205 203 203 205 209 212 212 210 209 208 206 205 204 204 206 207 209 210 210 210 211 212 212 211
20 21 21 23 25 23 22 25 27 22 5 319 290 285 288 295 294 267 231 218 223 231 237 240 236 225 215 203 190 186 188 192 196 201 206 208 208 206 201 195 193 193 196 200 204 207 209 208 207 209 210 210 208 206 206 208 211 212 212 209 207 205 204 204 205 206 208 209 210 211 212 212 214 215
21 20 20 21 22 20 19 22 25 25 17 348 306 290 285 283 279 270 250 235 231 233 237 240 241 236 229 221 208 195 191 195 197 198 199 203 209 213 213 208 204 200 197 198 201 204 207 209 210 211 213 216 216 216 213 209 208 210 212 213 211 208 205 204 203 205 206 207 209 211 214 215 216 216
21 19 19 19 19 17 16 19 22 25 24 13 345 314 291 277 271 266 257 248 244 241 240 240 240 239 236 231 220 207 199 198 199 198 198 200 204 209 210 208 205 204 202 202 203 205 208 211 213 215 216 218 219 220 220 217 212 209 209 211 213 213 210 207 204 203 204 205 206 207 210 214 216 217
20 18 17 17 16 15 15 17 19 23 27 29 22 2 308 273 267 265 260 254 250 245 241 237 234 235 236 234 225 216 209 204 202 202 203 205 207 207 207 207 206 205 204 204 204 206 208 210 212 213 214 216 217 217 218 219 218 215 211 210 210 212 214 213 211 207 205 204 204 205 207 209 213 215
20 17 15 14 14 14 16 18 20 23 28 31 29 18 357 271 250 252 255 254 249 242 237 230 225 225 228 228 222 216 213 210 209 210 211 213 213 211 208 208 209 209 209 208 207 206 206 208 210 211 211 213 214 214 214 215 216 216 216 214 212 211 211 213 214 213 212 209 207 207 207 207 209 211
20 16 13 12 12 13 15 19 23 25 27 28 29 25 18 4 230 232 239 244 245 240 232 224 218 215 216 216 214 211 209 209 209 211 213 213 212 210 207 206 208 211 212 213 212 211 209 209 211 211 211 211 212 212 212 212 212 213 213 214 215 215 214 212 212 213 214 215 214 213 211 209 208 209
19 14 11 12 12 13 15 18 22 27 29 30 32 34 36 43 79 201 218 226 232 235 230 222 216 213 210 209 209 208 206 206 206 207 209 209 208 208 208 208 208 209 211 213 214 215 214 213 214 214 213 212 211 211 212 211 211 212 211 211 212 214 216 215 214 213 213 214 215 216 216 215 213 211
16 10 7 8 11 13 16 18 22 28 32 35 36 39 41 44 46 49 57 224 224 228 231 226 219 215 212 210 210 210 210 210 209 209 211 212 212 212 213 215 215 214 214 214 214 215 215 215 216 217 217 216 214 213 212 212 212 212 212 212 211 212 214 215 216 216 215 215 215 215 215 216 216 216
10 3 359 1 6 11 16 21 25 29 34 37 39 42 45 46 46 45 41 38 202 218 229 231 227 222 218 215 213 214 215 216 216 217 219 221 222 222 222 223 224 224 222 220 218 217 217 216 216 216 216 218 219 217 215 214 213 214 214 214 214 214 214 215 215 216 216 218 218 217 217 216 216 217
2 355 353 356 1 8 14 19 24 29 33 36 39 42 46 48 49 47 45 50 69 112 215 232 233 231 227 222 220 219 219 220 221 223 225 227 230 231 230 230 230 231 230 227 224 222 220 219 218 216 214 216 218 219 218 217 215 214 215 216 215 216 216 216 217 216 216 217 218 218 219 218 218 218
359 354 352 354 358 4 10 15 20 25 29 32 36 39 42 47 49 49 48 50 55 56 51 279 244 240 235 231 228 226 225 225 225 226 227 228 230 233 234 234 234 234 234 233 231 227 224 223 222 219 215 215 217 218 219 219 217 215 216 217 217 217 218 218 218 218 218 217 218 218 219 219 219 219
1 1 359 356 356 359 4 11 17 20 24 27 31 34 37 42 46 49 51 50 48 44 38 30 347 267 247 238 234 233 232 230 229 229 230 230 230 231 233 234 235 235 236 236 235 233 229 226 224 223 220 218 218 217 218 221 222 220 218 217 217 218 218 219 220 220 220 219 219 220 220 220 220 220
5 6 5 2 359 357 359 5 11 15 18 22 25 28 32 36 38 41 45 45 45 44 43 38 24 354 309 268 247 240 238 237 235 234 233 233 233 233 232 232 232 233 234 234 234 234 233 229 226 223 221 220 219 217 216 218 221 223 222 221 220 219 218 219 219 220 220 221 221 221 222 222 222 222
9 9 9 8 5 2 359 360 3 8 13 16 19 22 26 30 32 33 36 39 42 43 44 42 36 13 329 309 289 264 252 246 242 239 237 236 235 234 234 232 230 230 230 229 228 226 226 228 229 224 219 218 218 217 216 216 218 221 222 222 222 221 219 219 218 218 219 220 221 221 222 222 222 223
9 10 11 11 9 7 5 1 358 359 3 7 12 15 19 23 25 26 28 32 36 37 38 39 40 35 14 315 282 273 269 259 247 243 242 241 238 235 233 231 229 227 225 225 224 219 213 218 228 230 224 219 215 213 215 217 219 222 222 221 220 220 220 219 219 218 219 219 220 221 222 222 222 222
7 9 10 11 10 9 8 6 2 359 357 357 0 4 8 12 16 18 20 24 27 28 28 29 30 31 29 16 321 279 271 264 253 247 244 242 241 240 236 230 227 227 226 222 218 214 210 213 221 228 228 223 217 214 214 215 215 218 221 220 219 219 219 220 219 219 220 220 220 221 222 222 222 222
5 6 7 8 9 9 9 8 7 4 360 356 354 354 355 358 1 5 10 14 16 18 19 18 18 19 20 20 11 338 289 268 262 259 250 239 233 240 247 239 228 226 226 220 212 210 211 214 217 220 224 223 218 216 218 218 217 218 219 220 219 219 220 221 221 221 221 221 221 221 221 221 222 222
4 4 5 6 6 7 8 8 8 7 4 1 356 351 349 349 349 351 356 359 2 3 6 7 7 6 6 7 6 359 333 281 263 259 255 243 226 219 230 242 236 227 222 215 210 210 213 215 216 216 218 219 218 216 217 218 218 219 220 220 219 218 218 219 220 221 221 221 222 222 221 221 222 222
6 5 5 4 4 5 5 6 6 7 5 4 0 356 351 347 343 341 340 341 344 347 350 352 355 355 354 352 350 349 347 332 296 268 257 252 239 222 215 219 227 228 223 216 212 213 216 218 219 218 217 217 219 221 221 220 218 217 217 218 219 219 219 219 220 221 221 222 223 223 224 224 224 224
13 11 9 7 6 4 3 4 4 4 4 3 1 359 355 350 344 338 332 329 328 330 331 334 339 343 343 341 340 337 333 330 320 295 265 256 252 239 225 217 215 217 219 218 217 217 218 221 224 225 224 221 221 223 226 228 227 224 222 220 221 223 225 226 226 226 225 224 224 225 226 227 227 227
21 20 18 16 14 11 8 5 3 1 1 1 360 358 356 353 348 342 337 331 325 322 321 320 321 324 325 327 327 325 322 319 314 307 292 269 258 252 243 231 223 218 216 215 216 217 217 219 221 224 227 229 227 225 226 228 229 228 227 226 226 228 230 231 231 230 228 227 226 226 227 228 229 230
Height
2802 2798 2796 2793 2792 2791 2791 2790 2789 2789 2788 2787 2786 2787 2787 2787 2787 2789 2792 2797 2803 2808 2812 2815 2819 2822 2823 2825 2827 2829 2831 2834 2837 2839 2842 2845 2849 2851 2854 2857 2861 2865 2870 2874 2880 2885 2890 2895 2901 2907 2912 2916 2919 2923 2929 2934 2938 2942 2947 2950 2953 2956 2961 2966 2971 2976 2980 2983 2987 2990 2995 3000 3004 3010
2797 2793 2790 2788 2786 2786 2786 2785 2785 2784 2783 2783 2782 2782 2783 2784 2784 2786 2787 2790 2796 2804 2807 2810 2814 2817 2819 2820 2822 2825 2827 2829 2832 2834 2838 2841 2844 2847 2850 2853 2856 2860 2864 2869 2874 2879 2885 2890 2895 2900 2905 2909 2913 2917 2923 2929 2933 2937 2942 2945 2948 2952 2956 2961 2966 2970 2975 2978 2982 2985 2990 2995 3000 3005
2792 2788 2785 2783 2782 2782 2781 2781 2780 2780 2779 2778 2777 2777 2778 2780 2781 2784 2784 2784 2791 2799 2803 2806 2810 2812 2814 2816 2818 2821 2823 2825 2827 2830 2833 2836 2839 2842 2845 2848 2851 2855 2859 2863 2868 2873 2879 2884 2889 2894 2899 2904 2909 2913 2917 2923 2929 2933 2937 2941 2945 2948 2953 2957 2961 2966 2970 2974 2977 2981 2986 2992 2996 3000
2788 2784 2781 2780 2779 2778 2777 2776 2776 2775 2775 2774 2773 2772 2773 2775 2777 2780 2781 2780 2786 2794 2798 2801 2805 2808 2810 2812 2814 2816 2819 2821 2823 2825 2828 2832 2835 2837 2840 2843 2846 2850 2853 2857 2862 2867 2873 2878 2883 2888 2893 2898 2905 2909 2912 2917 2923 2929 2932 2937 2941 2946 2950 2953 2957 2961 2966 2969 2973 2977 2982 2987 2991 2995
2784 2781 2779 2778 2777 2775 2773 2772 2771 2771 2771 2771 2770 2769 2769 2770 2772 2776 2778 2778 2783 2790 2794 2797 2801 2804 2805 2808 2810 2812 2815 2817 2819 2821 2824 2827 2830 2833 2836 2839 2842 2846 2849 2852 2857 2862 2867 2872 2877 2882 2887 2893 2899 2904 2907 2911 2917 2923 2928 2932 2938 2943 2947 2950 2953 2956 2960 2965 2969 2973 2978 2982 2986 2990
2781 2778 2777 2775 2774 2772 2770 2768 2768 2768 2768 2768 2767 2767 2766 2766 2768 2772 2775 2776 2780 2787 2790 2793 2797 2800 2801 2804 2806 2808 2811 2813 2815 2817 2820 2823 2826 2829 2832 2835 2838 2842 2845 2848 2852 2857 2862 2867 2872 2876 2881 2886 2892 2898 2904 2908 2912 2918 2923 2928 2933 2939 2943 2946 2948 2951 2955 2959 2964 2968 2973 2977 2981 2986
2779 2776 2774 2773 2771 2769 2767 2765 2765 2765 2765 2765 2764 2764 2763 2763 2766 2769 2772 2774 2777 2783 2787 2790 2793 2796 2797 2800 2803 2805 2807 2810 2812 2814 2816 2819 2822 2825 2828 2831 2834 2838 2840 2843 2847 2851 2856 2861 2867 2871 2876 2881 2886 2892 2899 2904 2907 2912 2917 2922 2928 2933 2939 2942 2944 2947 2951 2955 2960 2964 2968 2972 2977 2982
2776 2773 2771 2770 2768 2767 2765 2763 2763 2762 2762 2762 2762 2761 2761 2761 2763 2766 2769 2772 2774 2779 2783 2786 2789 2792 2794 2797 2800 2802 2804 2806 2808 2810 2813 2815 2818 2821 2824 2827 2830 2833 2836 2839 2842 2846 2851 2856 2861 2866 2871 2875 2880 2887 2894 2899 2903 2907 2912 2917 2923 2927 2933 2938 2940 2943 2946 2951 2956 2960 2963 2968 2973 2977
2774 2771 2769 2767 2766 2764 2763 2762 2761 2760 2760 2760 2759 2758 2758 2759 2761 2763 2766 2769 2772 2776 2780 2782 2785 2788 2791 2794 2796 2799 2801 2803 2805 2807 2809 2812 2815 2818 2820 2823 2826 2829 2832 2835 2838 2842 2846 2850 2855 2860 2865 2870 2875 2881 2888 2894 2898 2902 2906 2912 2918 2922 2928 2933 2936 2939 2943 2947 2952 2955 2959 2964 2969 2973
2772 2769 2766 2765 2764 2762 2761 2760 2759 2758 2757 2757 2757 2755 2755 2756 2758 2760 2763 2766 2769 2773 2777 2780 2783 2786 2788 2791 2793 2796 2798 2799 2801 2804 2806 2809 2812 2814 2817 2820 2822 2824 2827 2831 2835 2838 2842 2846 2850 2855 2859 2864 2869 2875 2882 2888 2893 2897 2901 2907 2912 2917 2922 2927 2932 2935 2939 2943 2948 2952 2956 2961 2965 2969
2771 2767 2764 2763 2762 2760 2759 2757 2757 2756 2756 2755 2754 2753 2753 2754 2756 2758 2760 2763 2766 2771 2775 2778 2781 2784 2786 2788 2791 2793 2794 2796 2798 2801 2803 2806 2809 2811 2814 2817 2819 2821 2824 2828 2831 2835 2838 2842 2846 2850 2854 2859 2864 2869 2875 2882 2888 2893 2897 2901 2907 2912 2917 2922 2927 2930 2934 2939 2944 2948 2952 2957 2961 2965
2770 2766 2763 2761 2760 2759 2757 2756 2755 2754 2753 2752 2752 2752 2751 2752 2754 2756 2758 2761 2764 2768 2772 2776 2779 2781 2783 2786 2788 2790 2791 2793 2796 2798 2801 2803 2806 2809 2811 2814 2817 2819 2821 2825 2828 2832 2835 2838 2841 2846 2850 2854 2859 2863 2869 2875 2881 2887 2893 2896 2901 2906 2911 2917 2922 2925 2928 2934 2939 2944 2948 2953 2957 2961
2769 2765 2762 2760 2758 2757 2756 2755 2753 2752 2750 2750 2751 2751 2750 2750 2752 2754 2756 2759 2762 2766 2770 2774 2777 2779 2781 2784 2785 2787 2789 2791 2793 2796 2798 2800 2803 2805 2808 2811 2814 2817 2819 2822 2825 2829 2832 2835 2838 2842 2846 2850 2854 2858 2863 2868 2874 2882 2888 2892 2895 2900 2905 2911 2916 2919 2924 2930 2934 2939 2944 2949 2953 2958
2768 2764 2760 2758 2757 2755 2754 2753 2752 2751 2750 2750 2750 2750 2749 2749 2749 2751 2754 2758 2762 2765 2769 2772 2775 2777 2779 2781 2782 2784 2786 2788 2791 2793 2795 2797 2800 2802 2805 2808 2811 2814 2817 2819 2822 2825 2829 2832 2835 2838 2842 2846 2850 2854 2858 2863 2868 2876 2883 2886 2890 2896 2900 2905 2909 2914 2920 2925 2930 2935 2940 2945 2950 2954
2767 2763 2759 2757 2755 2754 2753 2753 2752 2751 2751 2750 2750 2749 2748 2747 2748 2750 2753 2756 2760 2764 2767 2770 2773 2775 2777 2778 2779 2781 2783 2785 2788 2790 2792 2795 2797 2800 2803 2806 2809 2812 2814 2817 2820 2823 2826 2829 2832 2835 2839 2842 2846 2850 2855 2859 2863 2869 2875 2880 2885 2890 2895 2900 2904 2910 2916 2921 2926 2930 2935 2940 2946 2951
2767 2762 2759 2756 2754 2752 2751 2752 2752 2751 2751 2750 2749 2749 2748 2747 2748 2751 2753 2756 2759 2762 2765 2768 2771 2773 2775 2776 2777 2779 2780 2782 2785 2788 2790 2792 2795 2797 2800 2804 2807 2810 2813 2815 2818 2821 2824 2827 2830 2833 2836 2839 2843 2846 2850 2854 2857 2862 2868 2873 2879 2885 2890 2894 2900 2905 2911 2916 2921 2926 2930 2935 2941 2947
2767 2762 2758 2755 2753 2750 2750 2750 2751 2751 2750 2749 2748 2749 2749 2748 2749 2752 2754 2755 2758 2760 2763 2766 2769 2771 2773 2774 2775 2777 2778 2780 2783 2785 2788 2791 2793 2796 2798 2802 2805 2808 2811 2813 2816 2819 2822 2825 2828 2831 2834 2837 2840 2843 2846 2849 2853 2858 2862 2868 2874 2880 2885 2890 2895 2900 2906 2912 2917 2921 2926 2930 2935 2940
2767 2762 2758 2754 2752 2750 2749 2749 2749 2750 2749 2749 2749 2749 2750 2750 2750 2752 2753 2755 2757 2759 2761 2764 2767 2769 2771 2772 2773 2775 2776 2779 2781 2783 2786 2789 2791 2793 2796 2799 2802 2805 2808 2811 2814 2816 2820 2823 2826 2829 2832 2834 2837 2840 2843 2846 2849 2853 2858 2863 2869 2875 2881 2886 2891 2896 2901 2907 2913 2917 2922 2927 2931 2936
2767 2762 2759 2755 2751 2749 2748 2748 2748 2749 2749 2749 2749 2749 2750 2750 2751 2752 2753 2754 2756 2758 2760 2762 2765 2767 2769 2770 2772 2773 2775 2777 2779 2782 2784 2786 2789 2792 2794 2797 2800 2803 2806 2809 2811 2814 2817 2821 2824 2827 2830 2833 2835 2838 2841 2843 2846 2849 2854 2859 2864 2870 2875 2881 2885 2891 2896 2902 2908 2914 2918 2923 2928 2933
2768 2763 2760 2756 2752 2749 2748 2747 2747 2748 2748 2749 2749 2749 2750 2750 2751 2752 2753 2754 2755 2757 2759 2761 2764 2766 2768 2770 2771 2773 2775 2777 2779 2781 2783 2785 2787 2790 2792 2795 2798 2801 2804 2806 2809 2812 2815 2818 2822 2825 2828 2831 2833 2836 2839 2842 2844 2847 2850 2855 2860 2865 2870 2875 2880 2885 2891 2897 2903 2909 2914 2919 2924 2929
2769 2765 2761 2757 2753 2749 2748 2747 2747 2747 2747 2748 2749 2749 2750 2750 2751 2752 2753 2753 2754 2756 2759 2760 2763 2765 2767 2769 2771 2773 2774 2776 2778 2780 2782 2784 2786 2789 2791 2793 2796 2799 2802 2804 2807 2810 2813 2816 2819 2823 2826 2829 2832 2835 2837 2840 2843 2845 2848 2852 2856 2861 2865 2870 2875 2879 2885 2890 2897 2903 2909 2914 2920 2924
2770 2767 2763 2758 2754 2750 2748 2747 2746 2746 2747 2747 2748 2749 2749 2750 2751 2751 2752 2753 2755 2756 2758 2760 2762 2764 2766 2768 2770 2772 2774 2776 2778 2779 2781 2783 2785 2787 2790 2793 2795 2798 2800 2803 2806 2809 2812 2815 2818 2821 2824 2827 2830 2833 2836 2839 2842 2844 2847 2850 2854 2858 2862 2867 2871 2875 2879 2884 2891 2897 2902 2908 2914 2918
2772 2768 2765 2760 2755 2752 2750 2748 2747 2746 2746 2747 2747 2748 2749 2750 2750 2751 2752 2753 2755 2756 2758 2760 2762 2764 2766 2767 2769 2771 2773 2775 2777 2779 2781 2783 2784 2786 2789 2791 2794 2796 2799 2802 2804 2807 2810 2813 2816 2819 2822 2825 2828 2831 2834 2837 2840 2843 2846 2849 2852 2856 2860 2864 2868 2872 2876 2880 2885 2890 2896 2902 2907 2912
2773 2769 2765 2761 2757 2754 2752 2750 2748 2746 2746 2747 2747 2748 2749 2749 2750 2751 2753 2754 2755 2756 2758 2760 2762 2763 2765 2767 2768 2770 2772 2774 2776 2779 2781 2783 2784 2786 2788 2790 2792 2795 2797 2800 2803 2806 2809 2812 2815 2818 2821 2823 2827 2829 2832 2835 2838 2841 2844 2847 2851 2854 2858 2862 2866 2869 2872 2876 2880 2885 2890 2895 2901 2906
2773 2769 2765 2762 2758 2756 2754 2752 2749 2747 2746 2746 2747 2748 2748 2749 2750 2751 2753 2754 2755 2756 2758 2759 2761 2763 2765 2766 2768 2769 2771 2773 2775 2778 2780 2782 2784 2786 2788 2790 2792 2794 2796 2798 2801 2804 2807 2810 2813 2816 2819 2822 2825 2828 2831 2834 2836 2839 2843 2846 2849 2852 2856 2860 2864 2867 2870 2873 2877 2881 2885 2890 2895 2901
2773 2770 2767 2763 2760 2758 2756 2754 2751 2749 2747 2747 2747 2748 2748 2749 2750 2751 2752 2754 2755 2757 2758 2759 2761 2762 2764 2765 2767 2768 2770 2772 2774 2776 2779 2781 2783 2786 2788 2790 2792 2794 2795 2797 2800 2802 2805 2808 2811 2814 2817 2820 2823 2826 2829 2832 2835 2838 2841 2844 2847 2850 2853 2857 2861 2865 2868 2872 2875 2878 2882 2886 2891 2896
2775 2772 2769 2766 2763 2762 2759 2756 2754 2751 2749 2748 2748 2748 2749 2750 2750 2751 2752 2754 2755 2756 2757 2759 2760 2761 2763 2764 2766 2767 2769 2771 2773 2775 2778 2780 2782 2785 2787 2789 2791 2793 2795 2797 2799 2801 2804 2806 2809 2812 2815 2818 2821 2824 2827 2830 2833 2836 2839 2842 2845 2848 2851 2855 2859 2862 2866 2869 2873 2877 2880 2883 2887 2891
2777 2774 2771 2769 2767 2766 2763 2760 2757 2754 2752 2750 2749 2749 2749 2750 2751 2751 2752 2753 2754 2755 2756 2757 2759 2760 2762 2764 2765 2767 2768 2770 2772 2774 2776 2779 2781 2783 2786 2788 2790 2792 2794 2796 2798 2800 2802 2805 2807 2810 2813 2815 2818 2821 2824 2827 2830 2834 2837 2840 2843 2846 2850 2853 2856 2859 2863 2866 2869 2873 2876 2880 2883 2887
2779 2776 2775 2773 2771 2770 2767 2764 2760 2757 2754 2752 2751 2750 2750 2750 2751 2751 2752 2753 2754 2754 2755 2756 2757 2759 2761 2763 2764 2766 2768 2770 2772 2774 2776 2778 2780 2782 2784 2786 2788 2790 2792 2795 2797 2799 2801 2804 2806 2808 2811 2813 2816 2818 2822 2825 2828 2831 2834 2837 2841 2845 2848 2851 2854 2857 2860 2863 2866 2869 2873 2877 2880 2883
2782 2780 2779 2777 2774 2772 2769 2766 2762 2759 2756 2754 2753 2752 2751 2751 2751 2751 2752 2753 2753 2754 2754 2755 2756 2758 2760 2761 2763 2765 2767 2769 2771 2773 2775 2777 2779 2781 2783 2785 2787 2789 2791 2793 2795 2797 2800 2802 2804 2807 2809 2812 2814 2816 2819 2822 2824 2827 2830 2834 2838 2841 2845 2848 2851 2854 2857 2860 2864 2867 2870 2873 2877 2880
2784 2782 2781 2778 2776 2773 2770 2767 2765 2762 2760 2758 2756 2754 2753 2752 2751 2752 2752 2753 2753 2754 2754 2755 2756 2757 2759 2760 2762 2764 2766 2768 2770 2772 2774 2776 2778 2780 2781 2783 2785 2787 2790 2792 2794 2796 2798 2800 2803 2805 2807 2810 2812 2814 2817 2819 2822 2825 2827 2831 2834 2837 2841 2844 2848 2851 2854 2858 2860 2863 2866 2870 2873 2877
2785 2784 2782 2781 2779 2777 2774 2771 2769 2766 2763 2760 2758 2756 2754 2753 2752 2752 2752 2753 2753 2754 2754 2755 2755 2756 2758 2759 2761 2763 2765 2767 2769 2771 2773 2774 2776 2779 2780 2782 2784 2786 2788 2790 2792 2794 2796 2799 2801 2803 2805 2808 2810 2812 2814 2817 2819 2822 2825 2828 2831 2834 2837 2840 2844 2847 2851 2854 2857 2860 2863 2867 2870 2874
2786 2785 2784 2783 2781 2779 2777 2774 2771 2768 2765 2762 2760 2758 2756 2755 2754 2754 2753 2753 2753 2754 2754 2754 2755 2756 2757 2758 2760 2762 2764 2765 2767 2770 2771 2773 2775 2777 2779 2781 2783 2785 2787 2789 2791 2793 2795 2797 2799 2801 2803 2805 2808 2810 2812 2814 2817 2819 2822 2825 2828 2831 2834 2837 2840 2843 2846 2849 2853 2856 2860 2863 2867 2871
2788 2786 2785 2783 2781 2779 2777 2775 2772 2769 2767 2764 2762 2760 2759 2757 2756 2755 2755 2754 2754 2754 2754 2754 2754 2755 2756 2757 2759 2760 2762 2764 2766 2768 2770 2771 2773 2775 2777 2779 2781 2783 2785 2787 2789 2791 2793 2795 2797 2799 2801 2803 2805 2807 2809 2812 2814 2817 2819 2822 2825 2829 2831 2834 2837 2840 2843 2846 2849 2852 2856 2859 2863 2866
2789 2787 2785 2783 2781 2779 2777 2775 2773 2771 2768 2766 2764 2762 2761 2759 2758 2757 2756 2755 2754 2754 2754 2754 2754 2755 2755 2756 2758 2759 2760 2762 2763 2765 2767 2769 2771 2773 2775 2777 2779 2780 2782 2784 2786 2789 2791 2793 2795 2797 2799 2801 2803 2805 2807 2809 2812 2814 2817 2819 2822 2825 2828 2831 2834 2836 2839 2842 2845 2848 2851 2855 2858 2862
2789 2787 2785 2783 2781 2779 2778 2776 2774 2772 2770 2768 2766 2764 2763 2761 2760 2758 2757 2756 2755 2755 2755 2755 2755 2755 2755 2755 2756 2757 2758 2760 2761 2763 2764 2766 2768 2770 2772 2774 2776 2777 2779 2781 2783 2785 2788 2790 2792 2794 2797 2799 2800 2803 2805 2807 2810 2812 2815 2817 2819 2822 2825 2828 2830 2833 2836 2838 2841 2844 2847 2850 2854 2857
2790 2787 2785 2783 2781 2780 2778 2776 2775 2773 2771 2770 2768 2766 2764 2762 2761 2760 2759 2758 2757 2757 2756 2755 2755 2755 2755 2755 2755 2756 2757 2758 2759 2760 2762 2763 2765 2767 2768 2770 2772 2774 2776 2778 2780 2782 2784 2787 2789 2791 2793 2795 2798 2800 2803 2805 2807 2810 2812 2815 2817 2819 2822 2824 2827 2830 2832 2835 2838 2841 2843 2846 2850 2853
2791 2788 2786 2784 2782 2780 2778 2777 2775 2774 2773 2771 2769 2768 2766 2764 2763 2762 2761 2760 2759 2758 2757 2757 2756 2756 2755 2755 2755 2755 2756 2756 2757 2758 2759 2760 2762 2763 2765 2767 2769 2771 2772 2774 2777 2779 2782 2784 2785 2786 2789 2791 2794 2797 2800 2803 2805 2808 2810 2812 2815 2817 2819 2821 2824 2827 2829 2832 2834 2837 2839 2842 2845 2848
2792 2789 2787 2784 2782 2780 2779 2777 2776 2774 2773 2772 2771 2770 2768 2767 2765 2764 2763 2762 2761 2760 2759 2758 2757 2756 2756 2756 2755 2755 2755 2755 2756 2756 2757 2758 2759 2760 2762 2763 2765 2767 2769 2771 2773 2776 2779 2781 2782 2783 2785 2788 2790 2793 2796 2799 2802 2804 2807 2809 2812 2814 2816 2819 2821 2824 2826 2828 2831 2833 2836 2839 2841 2844
2792 2790 2787 2785 2783 2781 2779 2778 2776 2775 2774 2772 2771 2770 2769 2768 2767 2766 2765 2763 2762 2761 2760 2759 2758 2757 2757 2756 2756 2755 2755 2755 2755 2755 2756 2756 2757 2758 2759 2761 2762 2764 2766 2769 2771 2773 2776 2778 2779 2781 2783 2785 2787 2790 2792 2794 2797 2799 2802 2804 2807 2810 2812 2815 2817 2820 2822 2825 2827 2830 2832 2835 2838 2841
2792 2790 2788 2786 2784 2782 2780 2778 2777 2775 2774 2773 2771 2770 2769 2768 2767 2766 2765 2764 2763 2762 2761 2760 2759 2758 2758 2757 2756 2755 2755 2755 2755 2755 2755 2755 2756 2757 2758 2759 2760 2762 2764 2765 2768 2770 2773 2775 2777 2779 2781 2783 2785 2787 2789 2791 2794 2796 2798 2801 2804 2806 2809 2811 2814 2816 2818 2821 2823 2826 2828 2831 2834 2836
2792 2790 2788 2786 2784 2783 2781 2779 2777 2776 2774 2773 2772 2771 2769 2768 2767 2766 2765 2764 2763 2762 2762 2761 2760 2759 2758 2757 2757 2756 2755 2755 2755 2754 2754 2754 2755 2756 2757 2758 2759 2760 2761 2763 2765 2767 2770 2772 2774 2776 2778 2780 2782 2784 2786 2788 2791 2793 2795 2798 2800 2803 2805 2808 2810 2813 2815 2817 2819 2822 2824 2827 2829 2832
2793 2791 2789 2787 2785 2783 2781 2780 2778 2776 2775 2773 2772 2771 2770 2769 2768 2767 2766 2765 2764 2763 2762 2761 2760 2759 2758 2757 2757 2756 2755 2755 2754 2754 2754 2754 2754 2754 2755 2756 2757 2758 2759 2761 2763 2765 2767 2769 2771 2773 2775 2777 2779 2780 2782 2784 2787 2789 2792 2794 2796 2799 2801 2804 2806 2809 2811 2814 2816 2818 2820 2823 2826 2829
2793 2791 2789 2787 2786 2784 2782 2780 2778 2777 2775 2774 2772 2771 2770 2769 2768 2766 2765 2764 2764 2763 2762 2761 2760 2759 2758 2757 2756 2756 2755 2754 2754 2753 2753 2753 2753 2753 2753 2754 2755 2756 2757 2759 2760 2762 2764 2766 2768 2770 2771 2773 2775 2777 2778 2780 2783 2785 2788 2790 2792 2795 2797 2800 2802 2804 2807 2810 2813 2815 2817 2820 2823 2825
2795 2792 2790 2788 2786 2784 2782 2781 2779 2777 2776 2774 2773 2772 2770 2769 2767 2766 2765 2764 2763 2762 2761 2760 2759 2759 2758 2757 2756 2755 2755 2754 2753 2753 2752 2752 2752 2752 2752 2752 2753 2754 2755 2756 2757 2759 2761 2763 2765 2767 2768 2770 2771 2773 2775 2777 2779 2782 2785 2787 2790 2792 2794 2796 2798 2800 2803 2806 2809 2812 2814 2817 2819 2821